Regional Weather Roundup
Issued by NWS Albany, NY

Home | Current Version | Previous Version | Text Only | Print | Product List | Glossary On
Versions: 1 2 3 4 5 6 7 8 9 10 11 12 13 14 15 16 17 18 19 20 21 22 23 24 25 26 27 28
000
ASUS41 KALY 270810
RWRALY

NEW YORK STATE HOURLY WEATHER ROUNDUP
NATIONAL WEATHER SERVICE ALBANY NY
400 AM EDT SAT MAY 27 2017

NOTE: "FAIR" INDICATES FEW OR NO CLOUDS BELOW 12,000 FEET WITH NO
SIGNIFICANT WEATHER AND/OR NO OBSTRUCTIONS TO VISIBILITY.

NYZ032-033-038>043-046>054-057>066-NYZ062>081-082-084-270900-
EAST


CITY           SKY/WX    TMP DP  RH WIND       PRES   REMARKS
ALBANY         CLOUDY    54  51  90 N3        29.84R
GLENS FALLS    NOT AVBL
POUGHKEEPSIE   CLOUDY    53  51  93 W3        29.82R
NEWBURGH       CLEAR     54  52  94 W7        29.84R
MONTGOMERY     CLEAR     57  51  80 W7        29.82R
WHITE PLAINS   CLEAR     55  51  86 CALM      29.82R
ISLIP          CLEAR     55  54  96 NW5       29.81S
NEW YORK CITY  CLEAR     63  53  70 W13       29.82R
CENTRAL PARK   CLEAR     61  54  77 VRB3      29.85R
$$

NYZ005>009-017-018-044>046-055-056-270900-
CENTRAL


CITY           SKY/WX    TMP DP  RH WIND       PRES   REMARKS
FULTON         CLOUDY    56  54  93 CALM      29.87R
SYRACUSE       DRIZZLE   56  56 100 W5        29.86R
ROME           CLOUDY    53  51  93 N3        29.88R
ELMIRA         CLOUDY    59  52  77 SW5       29.87S
BINGHAMTON     CLOUDY    53  53 100 W5        29.87R
MONTICELLO     CLOUDY    52  52 100 CALM      29.86S
$$

NYZ026>034-041>043-087-270900-
NORTH


CITY           SKY/WX    TMP DP  RH WIND       PRES   REMARKS
WATERTOWN      CLOUDY    53  53 100 CALM      29.87R
FORT DRUM      NOT AVBL
OGDENSBURG     CLOUDY    52  51  97 CALM      29.88S
MASSENA        CLOUDY    51  51 100 CALM      29.89R
SARANAC LAKE   FOG       39  39 100 CALM      29.86R VSB 3/4
PLATTSBURGH    PTCLDY    50  46  86 CALM      29.85R
$$

NYZ001>004-010>016-019>021-085-270900-
WEST


CITY           SKY/WX    TMP DP  RH WIND       PRES   REMARKS
NIAGARA FALLS  CLOUDY    58  55  90 CALM      29.87F
BUFFALO        CLOUDY    54  52  93 SW8       29.89S
DUNKIRK        CLOUDY    53  52  96 SW5       29.90F
JAMESTOWN      CLOUDY    50  46  87 CALM      29.91S VSB 1/4
WELLSVILLE     CLOUDY    54  50  86 NW7       29.92S
ROCHESTER      CLOUDY    57  55  93 W6        29.88S
PENN YAN       CLOUDY    58  52  80 SW3       29.88S
$$

             KEY
       WCI = WIND CHILL INDEX
       VSB = VISIBILITY
       HX  = HEAT INDEX
$$




USA.gov is the U.S. government's official web portal to all federal, state and local government web resources and services.